HG2HNB-13 Weather Reports


time (UTC)temp
C
wind
direction
speed
KPH
gust
KPH
rain 1hr
cm
rain 24hr
cm
rain mn
cm
humidity
%
barometer
mb
20260504234136 17 225 9.7 12.9 0.00 0.00 0.00 30 1014.1
20260504233140 17 248 8.0 12.9 0.00 0.00 0.00 30 1014.0
20260504232116 18 225 12.9 16.1 0.00 0.00 0.00 30 1014.1
20260504231140 18 225 8.0 12.9 0.00 0.00 0.00 26 1014.3
20260504230116 18 225 11.3 14.5 0.00 0.00 0.00 26 1014.3
20260504225140 19 225 17.7 24.1 0.00 0.00 0.00 25 1014.5
20260504224116 19 315 8.0 12.9 0.00 0.00 0.00 25 1014.4
20260504223140 19 180 12.9 16.1 0.00 0.00 0.00 25 1014.5
20260504222156 18 180 16.1 19.3 0.00 0.00 0.00 26 1014.6
20260504221200 18 225 14.5 17.7 0.00 0.00 0.00 25 1014.3
20260504220136 18 225 14.5 17.7 0.00 0.00 0.00 26 1014.5
20260504215200 18 225 6.4 11.3 0.00 0.00 0.00 25 1014.6
20260504213140 18 180 11.3 19.3 0.00 0.00 0.00 24 1014.5
20260504212116 18 135 11.3 14.5 0.00 0.00 0.00 24 1014.6
20260504211200 19 225 9.7 12.9 0.00 0.00 0.00 24 1014.5
20260504205220 18 180 12.9 17.7 0.00 0.00 0.00 24 1014.6
20260504204116 18 225 6.4 11.3 0.00 0.00 0.00 23 1014.5
20260504203140 18 225 6.4 11.3 0.00 0.00 0.00 24 1014.5
20260504202136 18 225 6.4 11.3 0.00 0.00 0.00 24 1014.6
20260504201220 18 270 6.4 6.4 0.00 0.00 0.00 23 1014.5
20260504200116 19 180 6.4 8.0 0.00 0.00 0.00 23 1014.6
20260504195140 19 90 16.1 20.9 0.00 0.00 0.00 23 1014.6
20260504194116 20 225 11.3 14.5 0.00 0.00 0.00 24 1014.6
20260504193200 19 225 12.9 17.7 0.00 0.00 0.00 24 1014.6
20260504192136 19 180 16.1 20.9 0.00 0.00 0.00 26 1014.6
20260504191200 20 180 17.7 24.1 0.00 0.00 0.00 22 1014.5
20260504190136 20 180 17.7 20.9 0.00 0.00 0.00 22 1014.6
20260504185140 21 180 14.5 16.1 0.00 0.00 0.00 22 1014.4
20260504184116 21 180 17.7 24.1 0.00 0.00 0.00 21 1014.5
20260504183220 21 180 17.7 24.1 0.00 0.00 0.00 22 1014.1
20260504182216 21 180 16.1 19.3 0.00 0.00 0.00 21 1014.3
20260504181220 21 180 16.1 20.9 0.00 0.00 0.00 21 1014.2
20260504180136 22 180 14.5 17.7 0.00 0.00 0.00 21 1014.3
20260504175200 22 225 17.7 20.9 0.00 0.00 0.00 21 1014.2
20260504174116 22 225 12.9 14.5 0.00 0.00 0.00 20 1014.2
20260504173140 23 225 9.7 12.9 0.00 0.00 0.00 21 1014.3
20260504172116 23 180 9.7 12.9 0.00 0.00 0.00 20 1014.0
20260504171140 23 180 12.9 17.7 0.00 0.00 0.00 20 1014.2
20260504170136 23 180 12.9 19.3 0.00 0.00 0.00 20 1014.1
20260504160116 26 158 11.3 12.9 0.00 0.00 0.00 20 1014.6
20260504151140 26 225 14.5 19.3 0.00 0.00 0.00 20 1014.8
20260504150136 26 180 12.9 16.1 0.00 0.00 0.00 20 1014.6
20260504141200 26 315 11.3 17.7 0.00 0.00 0.00 20 1015.4
20260504140116 26 248 6.4 6.4 0.00 0.00 0.00 20 1015.6
20260504110644 24 180 16.1 17.7 0.00 0.00 0.00 20 1017.2
20260504081708 17 90 6.4 8.0 0.00 0.00 0.00 33 1018.7
20260504080709 17 0 6.4 8.0 0.00 0.00 0.00 38 1018.9
20260504050648 14 180 9.7 11.3 0.00 0.00 0.00 37 1018.6
20260504045624 13 180 6.4 6.4 0.00 0.00 0.00 38 1018.6
20260504044748 13 180 4.8 6.4 0.00 0.00 0.00 40 1018.5
20260504043624 13 225 6.4 8.0 0.00 0.00 0.00 38 1018.2
20260504042708 13 225 3.2 4.8 0.00 0.00 0.00 38 1018.3
20260504041624 12 270 3.2 3.2 0.00 0.00 0.00 40 1018.2
20260504040728 12 180 4.8 6.4 0.00 0.00 0.00 40 1018.3
20260504035644 12 180 3.2 4.8 0.00 0.00 0.00 42 1018.4
20260504034709 12 225 6.4 8.0 0.00 0.00 0.00 41 1018.2
20260504033624 12 270 3.2 6.4 0.00 0.00 0.00 41 1018.2
20260504032728 12 225 4.8 6.4 0.00 0.00 0.00 39 1018.2
20260504031624 12 225 4.8 6.4 0.00 0.00 0.00 38 1018.3
20260504030708 12 225 6.4 9.7 0.00 0.00 0.00 37 1018.3
20260504025624 12 225 11.3 12.9 0.00 0.00 0.00 36 1018.2
20260504024649 13 225 12.9 16.1 0.00 0.00 0.00 35 1018.2
20260504023624 13 180 9.7 16.1 0.00 0.00 0.00 35 1018.4
20260504022808 13 270 8.0 12.9 0.00 0.00 0.00 38 1018.5
20260504021704 12 338 8.0 16.1 0.00 0.00 0.00 37 1018.5
20260504020648 12 315 6.4 9.7 0.00 0.00 0.00 39 1018.5
20260504015624 12 315 6.4 9.7 0.00 0.00 0.00 38 1018.4
20260504014648 12 225 6.4 8.0 0.00 0.00 0.00 39 1018.3
20260504013646 12 270 4.8 6.4 0.00 0.00 0.00 39 1018.4
20260504012708 13 225 6.4 9.7 0.00 0.00 0.00 40 1018.3
20260504011624 13 225 3.2 3.2 0.00 0.00 0.00 38 1018.3
20260504010648 13 225 1.6 3.2 0.00 0.00 0.00 38 1018.4
20260504005624 12 270 3.2 3.2 0.00 0.00 0.00 37 1018.0
20260504004648 12 270 1.6 3.2 0.00 0.00 0.00 36 1018.1
20260504003644 13 225 3.2 3.2 0.00 0.00 0.00 34 1018.2
20260504002648 13 180 3.2 3.2 0.00 0.00 0.00 34 1018.2
20260504001626 13 180 3.2 3.2 0.00 0.00 0.00 36 1018.1
20260504000708 13 180 3.2 3.2 0.00 0.00 0.00 35 1018.1
20260503235644 13 180 3.2 4.8 0.00 0.00 0.00 35 1018.4